Change the Weather History Date:

Saturday, March 22, 2014

  Actual Average Record
Temperature  
Mean Temperature 37 °F 46 °F  
Max Temperature 51 °F 61 °F 80 °F (2009)
Min Temperature 22 °F 31 °F 10 °F (1952)
Degree Days  
Heating Degree Days 28 19  
Month to date heating degree days 511 489  
Since 1 July heating degree days 4587 4590  
Cooling Degree Days 0 0  
Month to date cooling degree days 0 0  
Year to date cooling degree days 0 0  
Moisture  
Dew Point 22 °F    
Average Humidity 63    
Maximum Humidity 92    
Minimum Humidity 34    
Precipitation  
Precipitation 0.10 in 0.03 in 0.39 in (1984)
Month to date precipitation 0.39 0.52  
Year to date precipitation 0.69 1.17  
Sea Level Pressure  
Sea Level Pressure 30.20 in    
Wind  
Wind Speed 20 mph (East)    
Max Wind Speed 41 mph    
Max Gust Speed 49 mph    
Visibility 4 miles    
Events Fog , Rain , Snow    
T = Trace of Precipitation, MM = Missing Value Source: NWS Daily Summary

Daily Weather History Graph

Daily Weather History Graph

Search for Another Location

Airport or City:

Trip Planner

Search our weather history database for the weather conditions in past years. The results will help you decide how hot, cold, wet, or windy it might be!

Date:

Astronomy

Mar. 22, 2014 Rise Set
Actual Time 6:54 AM MDT 7:07 PM MDT
Civil Twilight 6:28 AM MDT 7:34 PM MDT
Nautical Twilight 5:57 AM MDT 8:05 PM MDT
Astronomical Twilight 5:26 AM MDT 8:36 PM MDT
Moon 12:24 AM MDT (3/22) 10:44 AM MDT (3/22)
Length of Visible Light 13h 06m
Length of Day
12h 13m
Waning Gibbous, 65% of the Moon is Illuminated
Mar 22
Waning Gibbous
Mar 23
Last Quarter
Mar 30
New
Apr 7
First Quarter
Apr 15
Full

Hourly Weather History & Observations

Time (MDT) Temp. Windchill Dew Point Humidity Pressure Visibility Wind Dir Wind Speed Gust Speed Precip Events Conditions
12:53 AM 35.1 °F 30.1 °F 17.1 °F 48% 30.11 in 10.0 mi SE 5.8 mph - N/A   Clear
1:53 AM 32.0 °F 24.2 °F 16.0 °F 52% 30.12 in 10.0 mi East 9.2 mph - N/A   Clear
2:53 AM 32.0 °F 22.1 °F 17.1 °F 54% 30.11 in 10.0 mi ESE 13.8 mph - N/A   Clear
3:53 AM 30.0 °F 20.0 °F 18.0 °F 61% 30.11 in 10.0 mi ESE 12.7 mph - N/A   Clear
4:53 AM 28.0 °F 17.5 °F 21.0 °F 75% 30.13 in 10.0 mi ESE 12.7 mph - N/A   Clear
5:53 AM 27.0 °F 15.2 °F 21.0 °F 78% 30.15 in 10.0 mi East 15.0 mph - N/A   Clear
6:51 AM 28.4 °F 15.8 °F 21.2 °F 74% 30.15 in 10.0 mi East 18.4 mph - N/A   Mostly Cloudy
6:53 AM 28.0 °F 15.7 °F 21.9 °F 78% 30.15 in 10.0 mi ESE 17.3 mph - N/A   Mostly Cloudy
7:03 AM 28.0 °F 15.3 °F 21.9 °F 78% 30.15 in 10.0 mi ESE 18.4 mph - N/A   Overcast
7:53 AM 28.9 °F 15.4 °F 23.0 °F 78% 30.16 in 10.0 mi ESE 21.9 mph - N/A   Overcast
8:53 AM 30.0 °F 16.6 °F 23.0 °F 75% 30.16 in 9.0 mi ESE 23.0 mph - N/A   Overcast
9:38 AM 32.0 °F 18.4 °F 23.0 °F 69% 30.13 in 8.0 mi ESE 26.5 mph - N/A   Overcast
9:53 AM 33.1 °F 20.3 °F 23.0 °F 66% 30.15 in 7.0 mi ESE 24.2 mph - N/A   Mostly Cloudy
10:32 AM 36.0 °F 23.2 °F 24.1 °F 62% 30.11 in 2.0 mi ESE 28.8 mph 34.5 mph N/A   Haze
10:41 AM 37.0 °F 24.7 °F 24.1 °F 59% 30.11 in 3.0 mi ESE 28.8 mph 34.5 mph N/A   Haze
10:48 AM 37.4 °F 25.4 °F 24.8 °F 60% 30.11 in 2.5 mi ESE 27.6 mph 35.7 mph N/A   Haze
10:53 AM 37.0 °F 24.7 °F 24.1 °F 59% 30.12 in 2.5 mi ESE 28.8 mph - N/A   Haze
11:07 AM 37.9 °F 26.3 °F 24.1 °F 57% 30.09 in 4.0 mi ESE 26.5 mph - N/A   Haze
11:27 AM 39.0 °F 27.2 °F 24.1 °F 55% 30.08 in 1.8 mi ESE 29.9 mph 36.8 mph N/A   Haze
11:36 AM 39.9 °F 29.5 °F 24.1 °F 53% 30.08 in 3.0 mi ESE 24.2 mph 33.4 mph N/A   Haze
11:51 AM 41.0 °F 30.2 °F 24.8 °F 53% 30.07 in 3.0 mi ESE 27.6 mph 35.7 mph N/A   Haze
11:53 AM 41.0 °F 30.5 °F 24.1 °F 51% 30.07 in 3.0 mi ESE 26.5 mph 35.7 mph N/A   Haze
12:33 PM 44.1 °F 35.0 °F 24.1 °F 45% 30.04 in 5.0 mi ESE 24.2 mph 34.5 mph N/A   Haze
12:53 PM 44.1 °F 34.4 °F 24.1 °F 45% 30.02 in 4.0 mi ESE 27.6 mph 36.8 mph N/A   Haze
1:25 PM 46.0 °F 37.2 °F 24.1 °F 42% 30.02 in 3.0 mi East 26.5 mph 34.5 mph N/A   Haze
1:38 PM 46.9 °F - 24.1 °F 41% 30.01 in 1.8 mi East 27.6 mph 35.7 mph N/A   Haze
1:51 PM 48.2 °F - 24.8 °F 40% 30.00 in 2.5 mi East 27.6 mph 35.7 mph N/A   Haze
1:53 PM 48.0 °F - 24.1 °F 39% 29.99 in 3.0 mi ESE 25.3 mph 35.7 mph N/A   Haze
2:01 PM 48.9 °F - 24.1 °F 38% 30.00 in 5.0 mi East 26.5 mph 34.5 mph N/A   Haze
2:53 PM 51.1 °F - 24.1 °F 35% 29.96 in 4.0 mi East 26.5 mph 34.5 mph N/A   Haze
3:53 PM 48.0 °F - 24.1 °F 39% 30.00 in 8.0 mi ENE 28.8 mph 38.0 mph N/A   Mostly Cloudy
4:53 PM 48.0 °F - 21.0 °F 34% 30.05 in 2.0 mi NE 33.4 mph 40.3 mph N/A   Haze
5:01 PM 46.9 °F - 21.0 °F 36% 30.05 in 1.8 mi NE 28.8 mph 40.3 mph N/A   Haze
5:03 PM 46.9 °F - 21.0 °F 36% 30.06 in 2.0 mi NE 33.4 mph 40.3 mph N/A   Haze
5:12 PM 46.0 °F 36.4 °F 21.0 °F 37% 30.08 in 4.0 mi NE 32.2 mph 40.3 mph N/A   Haze
5:30 PM 44.1 °F 33.7 °F 19.9 °F 38% 30.11 in 2.5 mi NE 32.2 mph 41.4 mph N/A   Haze
5:33 PM 42.1 °F 30.1 °F 19.0 °F 40% 30.11 in 1.0 mi NNE 38.0 mph 43.7 mph N/A   Haze
5:40 PM 39.0 °F 25.9 °F 19.0 °F 45% 30.12 in 0.5 mi NNE 38.0 mph 46.0 mph N/A   Haze
5:53 PM 37.0 °F 23.5 °F 19.0 °F 48% 30.18 in 0.5 mi NNE 35.7 mph 47.2 mph 0.00 in Rain Light Rain
6:21 PM 32.0 °F 16.0 °F 21.0 °F 64% 30.19 in 1.0 mi NE 39.1 mph 46.0 mph 0.00 in Snow Light Snow
6:30 PM 30.9 °F 15.1 °F 21.0 °F 67% 30.20 in 2.0 mi NE 35.7 mph 46.0 mph 0.00 in Snow Light Snow
6:40 PM 30.9 °F 15.7 °F 21.0 °F 67% 30.22 in 4.0 mi NE 32.2 mph 42.6 mph 0.00 in Snow Light Snow
6:53 PM 30.0 °F 15.2 °F 21.9 °F 72% 30.30 in 5.0 mi NE 28.8 mph 39.1 mph 0.00 in Snow Light Snow
7:26 PM 28.9 °F 15.8 °F 23.0 °F 78% 30.27 in 2.5 mi ENE 20.7 mph - 0.00 in Snow Light Snow
7:49 PM 28.4 °F 17.0 °F 24.8 °F 86% 30.29 in 1.8 mi ENE 15.0 mph - 0.00 in Snow Light Snow
7:53 PM 28.0 °F 16.1 °F 24.1 °F 85% 30.36 in 1.2 mi ENE 16.1 mph - 0.00 in Snow Light Snow
8:06 PM 28.0 °F 18.1 °F 25.0 °F 88% 30.30 in 1.2 mi East 11.5 mph - 0.00 in Snow Light Snow
8:12 PM 27.0 °F 16.1 °F 25.0 °F 92% 30.31 in 0.8 mi East 12.7 mph - 0.02 in Snow Light Snow
8:23 PM 27.0 °F 17.3 °F 25.0 °F 92% 30.32 in 0.5 mi East 10.4 mph - 0.04 in Fog , Snow Snow
8:49 PM 26.6 °F 17.5 °F 24.8 °F 93% 30.34 in 1.2 mi East 9.2 mph - 0.06 in Snow Light Snow
8:53 PM 27.0 °F 18.7 °F 25.0 °F 92% 30.40 in 1.2 mi East 8.1 mph - 0.06 in Snow Light Snow
9:00 PM 27.0 °F 19.5 °F 25.0 °F 92% 30.34 in 0.8 mi East 6.9 mph - 0.00 in Snow Light Snow
9:08 PM 27.0 °F 16.7 °F 25.0 °F 92% 30.35 in 0.8 mi ENE 11.5 mph - 0.01 in Snow Light Snow
9:17 PM 26.1 °F 15.6 °F 24.1 °F 92% 30.36 in 1.0 mi NE 11.5 mph - 0.02 in Snow Light Snow
9:24 PM 26.1 °F 15.6 °F 24.1 °F 92% 30.37 in 0.8 mi ENE 11.5 mph - 0.02 in Snow Light Snow
9:39 PM 26.1 °F 16.2 °F 24.1 °F 92% 30.37 in 0.8 mi ENE 10.4 mph - 0.02 in Snow Light Snow
9:53 PM 26.1 °F 15.6 °F 24.1 °F 92% 30.43 in 1.0 mi ENE 11.5 mph - 0.02 in Snow Light Snow
10:24 PM 25.0 °F 13.6 °F 23.0 °F 92% 30.40 in 1.0 mi East 12.7 mph - 0.01 in Snow Light Snow
10:34 PM 25.0 °F 14.8 °F 23.0 °F 92% 30.40 in 1.5 mi East 10.4 mph - 0.01 in Snow Light Snow
10:49 PM 24.8 °F 14.0 °F 21.2 °F 86% 30.40 in 2.0 mi East 11.5 mph - 0.01 in Snow Light Snow
10:53 PM 24.1 °F 12.5 °F 21.9 °F 91% 30.46 in 2.0 mi East 12.7 mph - 0.01 in Snow Light Snow
11:02 PM 24.1 °F 13.7 °F 21.9 °F 91% 30.40 in 2.5 mi East 10.4 mph - 0.00 in Snow Light Snow
11:12 PM 24.1 °F 13.7 °F 21.9 °F 91% 30.41 in 2.0 mi ENE 10.4 mph - 0.01 in Snow Light Snow
11:20 PM 24.1 °F 14.4 °F 21.9 °F 91% 30.41 in 1.8 mi East 9.2 mph - 0.01 in Snow Light Snow
11:32 PM 23.0 °F 12.4 °F 21.0 °F 92% 30.41 in 2.5 mi East 10.4 mph - 0.01 in Snow Light Snow
11:45 PM 21.9 °F 10.4 °F 19.9 °F 92% 30.40 in 3.0 mi East 11.5 mph - 0.01 in Snow Light Snow
11:53 PM 21.9 °F 12.5 °F 19.0 °F 89% 30.45 in 5.0 mi East 8.1 mph - 0.01 in   Overcast